EW6764 Weather Reports


time (UTC)temp
F
wind
direction
speed
knots
gust
knots
rain 1hr
in
rain 24hr
in
rain mn
in
humidity
%
barometer
mb
20260507223515 74 301 3.5 13.9 0.00 0.00 0.00 15 1010.7
20260507223015 74 321 6.1 13.9 0.00 0.00 0.00 13 1010.6
20260507222521 75 297 3.5 9.6 0.00 0.00 0.00 12 1010.7
20260507222014 75 254 2.6 13.0 0.00 0.00 0.00 12 1010.8
20260507221511 74 302 3.5 14.8 0.00 0.00 0.00 12 1010.8
20260507221015 74 317 6.1 13.9 0.00 0.00 0.00 13 1010.8
20260507220519 75 308 2.6 11.3 0.00 0.00 0.00 14 1010.9
20260507220010 75 315 3.5 11.3 0.00 0.00 0.00 13 1011.0
20260507215510 75 300 2.6 10.4 0.00 0.00 0.00 13 1011.1
20260507215008 75 315 4.3 10.4 0.00 0.00 0.00 13 1011.0
20260507214515 75 350 2.6 11.3 0.00 0.00 0.00 12 1011.0
20260507214012 76 355 4.3 11.3 0.00 0.00 0.00 11 1011.0
20260507213508 76 299 2.6 12.2 0.00 0.00 0.00 12 1011.0
20260507213005 75 314 2.6 12.2 0.00 0.00 0.00 12 1011.0
20260507212506 74 14 4.3 10.4 0.00 0.00 0.00 13 1011.1
20260507212003 74 304 2.6 11.3 0.00 0.00 0.00 13 1011.1
20260507211503 75 300 3.5 8.7 0.00 0.00 0.00 12 1011.2
20260507211004 75 311 1.7 7.8 0.00 0.00 0.00 13 1011.3
20260507210502 75 323 1.7 8.7 0.00 0.00 0.00 14 1011.3
20260507210001 74 256 2.6 8.7 0.00 0.00 0.00 14 1011.3
20260507205600 74 288 1.7 8.7 0.00 0.00 0.00 15 1011.3
20260507205101 74 296 1.7 8.7 0.00 0.00 0.00 15 1011.4
20260507204557 74 54 0.9 8.7 0.00 0.00 0.00 15 1011.6
20260507204056 73 307 2.6 8.7 0.00 0.00 0.00 15 1011.7
20260507203559 72 309 5.2 8.7 0.00 0.00 0.00 14 1011.6
20260507203055 72 9 1.7 5.2 0.00 0.00 0.00 14 1011.8
20260507202557 72 32 1.7 13.9 0.00 0.00 0.00 15 1011.7
20260507202053 72 323 3.5 13.9 0.00 0.00 0.00 14 1011.7
20260507201555 71 294 2.6 7.8 0.00 0.00 0.00 15 1011.8
20260507201050 69 325 3.5 7.8 0.00 0.00 0.00 18 1011.7
20260507200550 67 127 0.0 7.8 0.00 0.00 0.00 21 1011.9
20260507200051 67 123 3.5 7.8 0.00 0.00 0.00 19 1011.9
20260507195548 67 162 1.7 7.0 0.00 0.00 0.00 21 1012.0
20260507195048 67 44 2.6 9.6 0.00 0.00 0.00 23 1012.1
20260507194547 67 78 3.5 9.6 0.00 0.00 0.00 25 1012.0
20260507194046 67 47 2.6 9.6 0.00 0.00 0.00 26 1012.1
20260507193546 67 26 3.5 8.7 0.00 0.00 0.00 26 1012.1
20260507193055 67 67 3.5 9.6 0.00 0.00 0.00 26 1012.1
20260507192546 66 5 5.2 9.6 0.00 0.00 0.00 25 1012.2
20260507192045 66 49 2.6 11.3 0.00 0.00 0.00 28 1012.1
20260507191547 66 62 4.3 11.3 0.00 0.00 0.00 28 1012.2
20260507191045 66 21 5.2 9.6 0.00 0.00 0.00 28 1012.3
20260507190545 66 339 5.2 11.3 0.00 0.00 0.00 28 1012.3
20260507190045 66 31 3.5 11.3 0.00 0.00 0.00 28 1012.3
20260507185544 67 38 2.6 8.7 0.00 0.00 0.00 29 1012.3
20260507185043 67 32 3.5 8.7 0.00 0.00 0.00 30 1012.4
20260507184546 67 21 2.6 8.7 0.00 0.00 0.00 30 1012.4
20260507184045 67 360 2.6 8.7 0.00 0.00 0.00 31 1012.3
20260507183545 67 319 2.6 7.0 0.00 0.00 0.00 29 1012.4
20260507183042 66 44 2.6 7.0 0.00 0.00 0.00 30 1012.4
20260507182540 66 351 0.0 5.2 0.00 0.00 0.00 33 1012.5
20260507182040 66 320 2.6 5.2 0.00 0.00 0.00 32 1012.5
20260507181538 65 323 0.0 7.0 0.00 0.00 0.00 36 1012.5
20260507181038 64 19 0.0 5.2 0.00 0.00 0.00 37 1012.6
20260507180541 64 33 1.7 8.7 0.00 0.00 0.00 37 1012.5
20260507180037 65 302 2.6 8.7 0.00 0.00 0.00 37 1012.6
20260507175537 64 38 1.7 8.7 0.00 0.00 0.00 38 1012.5
20260507175036 64 19 3.5 8.7 0.00 0.00 0.00 37 1012.5
20260507174547 64 34 3.5 7.0 0.00 0.00 0.00 36 1012.5
20260507174035 64 312 2.6 7.0 0.00 0.00 0.00 36 1012.4
20260507173534 63 24 1.7 7.0 0.00 0.00 0.00 38 1012.5
20260507173033 63 28 2.6 4.3 0.00 0.00 0.00 39 1012.5
20260507172532 62 32 0.0 5.2 0.00 0.00 0.00 39 1012.5
20260507172031 62 32 0.9 5.2 0.00 0.00 0.00 41 1012.5
20260507171541 61 34 1.7 5.2 0.00 0.00 0.00 43 1012.5
20260507171031 61 36 2.6 4.3 0.00 0.00 0.00 43 1012.6
20260507170531 62 37 1.7 5.2 0.00 0.00 0.00 44 1012.6
20260507170030 62 37 2.6 5.2 0.00 0.00 0.00 44 1012.6
20260507165533 62 40 2.6 5.2 0.00 0.00 0.00 42 1012.6
20260507165029 62 37 0.9 3.5 0.00 0.00 0.00 45 1012.6
20260507164528 60 33 0.9 5.2 0.00 0.00 0.00 46 1012.6
20260507164028 60 34 2.6 5.2 0.00 0.00 0.00 46 1012.6
20260507163528 59 36 0.9 5.2 0.00 0.00 0.00 47 1012.5
20260507163027 60 40 1.7 4.3 0.00 0.00 0.00 48 1012.5
20260507162527 59 41 0.9 6.1 0.00 0.00 0.00 47 1012.4
20260507162027 60 45 1.7 5.2 0.00 0.00 0.00 48 1012.4
20260507161527 59 33 0.0 4.3 0.00 0.00 0.00 49 1012.5
20260507161026 58 19 0.9 5.2 0.00 0.00 0.00 50 1012.5
20260507160526 58 54 2.6 5.2 0.00 0.00 0.00 51 1012.5
20260507160027 58 32 1.7 5.2 0.00 0.00 0.00 50 1012.5
20260507155525 58 32 3.5 5.2 0.00 0.00 0.00 49 1012.6
20260507155025 58 28 0.9 5.2 0.00 0.00 0.00 51 1012.6
20260507154524 58 27 0.9 7.8 0.00 0.00 0.00 51 1012.7
20260507154025 58 29 1.7 7.8 0.00 0.00 0.00 51 1012.6
20260507153524 57 41 0.0 4.3 0.00 0.00 0.00 52 1012.5
20260507153027 57 36 0.9 7.0 0.00 0.00 0.00 52 1012.6
20260507152525 57 26 2.6 7.0 0.00 0.00 0.00 51 1012.6
20260507152025 57 40 1.7 4.3 0.00 0.00 0.00 51 1012.6
20260507151524 57 35 0.9 4.3 0.00 0.00 0.00 50 1012.6
20260507151023 58 50 1.7 3.5 0.00 0.00 0.00 49 1012.6
20260507150524 58 142 0.9 2.6 0.00 0.00 0.00 48 1012.7
20260507150026 58 153 0.9 2.6 0.00 0.00 0.00 48 1012.8
20260507145523 58 150 0.0 2.6 0.00 0.00 0.00 50 1012.7
20260507145027 57 150 0.9 2.6 0.00 0.00 0.00 51 1012.7
20260507144522 55 150 0.0 1.7 0.00 0.00 0.00 52 1012.7
20260507144022 55 150 0.0 2.6 0.00 0.00 0.00 51 1012.7
20260507143521 56 148 0.0 1.7 0.00 0.00 0.00 51 1012.8
20260507143023 55 148 0.0 1.7 0.00 0.00 0.00 51 1012.8
20260507142522 55 148 0.0 0.9 0.00 0.00 0.00 52 1012.7
20260507142024 55 148 0.0 0.0 0.00 0.00 0.00 52 1012.7
20260507141523 55 148 0.0 0.0 0.00 0.00 0.00 53 1012.7
20260507141021 55 148 0.0 0.0 0.00 0.00 0.00 52 1012.7
20260507140524 55 148 0.0 0.0 0.00 0.00 0.00 52 1012.7
20260507140035 55 148 0.0 0.9 0.00 0.00 0.00 51 1012.7
20260507135520 55 147 0.0 0.9 0.00 0.00 0.00 50 1012.6
20260507135021 56 169 0.0 0.0 0.00 0.00 0.00 51 1012.5
20260507134518 55 169 0.0 0.9 0.00 0.00 0.00 52 1012.5
20260507134017 55 169 0.0 0.9 0.00 0.00 0.00 52 1012.4
20260507133517 54 179 0.0 0.0 0.00 0.00 0.00 54 1012.4
20260507133017 53 180 0.0 0.0 0.00 0.00 0.00 55 1012.3
20260507132516 53 180 0.0 0.0 0.00 0.00 0.00 55 1012.3
20260507132016 53 180 0.0 0.0 0.00 0.00 0.00 56 1012.2
20260507131532 53 175 0.0 0.9 0.00 0.00 0.00 56 1012.2
20260507131016 53 175 0.0 0.9 0.00 0.00 0.00 55 1012.1
20260507130516 53 175 0.0 0.9 0.00 0.00 0.00 54 1012.1
20260507130015 53 175 0.0 0.0 0.00 0.00 0.00 54 1012.2
20260507125515 53 175 0.0 0.0 0.00 0.00 0.00 53 1012.1
20260507125014 53 175 0.0 3.5 0.00 0.00 0.00 53 1012.1
20260507124519 53 175 0.0 5.2 0.00 0.00 0.00 52 1012.2
20260507124014 53 169 1.7 5.2 0.00 0.00 0.00 53 1012.0
20260507123515 53 163 2.6 4.3 0.00 0.00 0.00 53 1012.0
20260507123015 53 155 0.9 4.3 0.00 0.00 0.00 52 1012.0
20260507122518 53 140 0.0 2.6 0.00 0.00 0.00 53 1012.0
20260507122012 54 137 0.0 0.9 0.00 0.00 0.00 53 1012.0
20260507121512 53 137 0.0 0.0 0.00 0.00 0.00 53 1012.0
20260507121012 53 137 0.0 0.0 0.00 0.00 0.00 53 1012.0
20260507120513 54 137 0.0 0.0 0.00 0.00 0.00 53 1012.1
20260507120025 54 137 0.0 2.6 0.00 0.00 0.00 53 1012.1
20260507115512 54 137 0.9 2.6 0.00 0.00 0.00 53 1012.0
20260507115013 54 118 0.0 1.7 0.00 0.00 0.00 53 1012.1
20260507114510 54 117 0.0 1.7 0.00 0.00 0.00 54 1012.1
20260507114015 53 117 0.0 2.6 0.00 0.00 0.00 54 1012.2
20260507113511 53 111 0.0 3.5 0.00 0.00 0.00 55 1012.2
20260507113012 53 111 1.7 3.5 0.00 0.00 0.00 55 1012.2
20260507112511 53 105 0.0 0.0 0.00 0.00 0.00 54 1012.2
20260507112011 53 104 0.0 2.6 0.00 0.00 0.00 54 1012.2
20260507111507 53 104 0.0 3.5 0.00 0.00 0.00 54 1012.2
20260507111007 54 105 0.9 3.5 0.00 0.00 0.00 53 1012.2
20260507110505 54 101 1.7 5.2 0.00 0.00 0.00 54 1012.1
20260507110006 54 88 1.7 5.2 0.00 0.00 0.00 54 1012.1
20260507105505 54 92 1.7 3.5 0.00 0.00 0.00 54 1012.0
20260507105004 54 94 0.9 3.5 0.00 0.00 0.00 53 1012.1
20260507104505 54 94 0.9 7.0 0.00 0.00 0.00 53 1012.1
20260507104003 54 87 2.6 7.0 0.00 0.00 0.00 53 1012.1
20260507103501 54 91 2.6 5.2 0.00 0.00 0.00 52 1012.1
20260507103002 54 90 2.6 6.1 0.00 0.00 0.00 52 1012.1
20260507102501 54 88 3.5 6.1 0.00 0.00 0.00 52 1012.2
20260507102002 54 84 3.5 6.1 0.00 0.00 0.00 51 1012.1
20260507101601 54 97 1.7 5.2 0.00 0.00 0.00 51 1012.1
20260507101103 54 98 2.6 5.2 0.00 0.00 0.00 51 1012.2
20260507100559 54 86 2.6 5.2 0.00 0.00 0.00 51 1012.3
20260507095557 55 97 0.0 3.5 0.00 0.00 0.00 48 1012.2
20260507095056 55 100 1.7 6.1 0.00 0.00 0.00 48 1012.2
20260507094605 56 87 1.7 5.2 0.00 0.00 0.00 47 1012.1
20260507094056 56 219 0.0 0.0 0.00 0.00 0.00 46 1012.2
20260507093555 56 219 0.0 0.0 0.00 0.00 0.00 46 1012.1
20260507093053 56 219 0.0 0.0 0.00 0.00 0.00 46 1012.0
20260507092552 57 219 0.0 0.0 0.00 0.00 0.00 46 1012.0
20260507092054 57 219 0.0 0.9 0.00 0.00 0.00 45 1012.1
20260507091552 57 219 0.0 1.7 0.00 0.00 0.00 46 1012.1
20260507091059 57 219 0.0 3.5 0.00 0.00 0.00 47 1012.1
20260507090550 57 218 0.0 0.0 0.00 0.00 0.00 47 1012.1
20260507090050 56 218 0.0 0.0 0.00 0.00 0.00 48 1012.0
20260507085550 56 218 0.0 0.0 0.00 0.00 0.00 48 1012.1
20260507085049 56 218 0.0 0.0 0.00 0.00 0.00 48 1012.1
20260507084557 56 218 0.0 0.0 0.00 0.00 0.00 48 1012.1
20260507084049 56 218 0.0 1.7 0.00 0.00 0.00 48 1012.3
20260507083551 56 218 0.0 2.6 0.00 0.00 0.00 48 1012.2
20260507083048 56 218 0.0 2.6 0.00 0.00 0.00 49 1012.2
20260507082547 57 218 0.0 2.6 0.00 0.00 0.00 48 1012.2
20260507082047 57 218 0.0 2.6 0.00 0.00 0.00 47 1012.2
20260507081544 58 218 0.0 5.2 0.00 0.00 0.00 47 1012.1
20260507081044 58 214 0.9 7.0 0.00 0.00 0.00 47 1012.1
20260507080545 58 211 2.6 9.6 0.00 0.00 0.00 46 1012.0
20260507080043 58 223 2.6 9.6 0.00 0.00 0.00 46 1012.1
20260507075544 58 211 1.7 7.0 0.00 0.00 0.00 46 1012.1
20260507075041 58 210 2.6 6.1 0.00 0.00 0.00 45 1012.1
20260507074545 58 234 1.7 4.3 0.00 0.00 0.00 44 1012.2
20260507074038 58 263 0.0 6.1 0.00 0.00 0.00 43 1012.2
20260507073538 58 223 0.9 7.8 0.00 0.00 0.00 43 1012.3
20260507073037 58 213 0.9 7.8 0.00 0.00 0.00 42 1012.3
20260507072537 59 273 2.6 7.0 0.00 0.00 0.00 42 1012.3
20260507072035 59 263 0.9 10.4 0.00 0.00 0.00 41 1012.4
20260507071539 59 294 2.6 10.4 0.00 0.00 0.00 40 1012.4
20260507071034 59 255 0.9 9.6 0.00 0.00 0.00 40 1012.3
20260507070533 59 301 0.9 9.6 0.00 0.00 0.00 40 1012.3
20260507070033 59 286 1.7 7.8 0.00 0.00 0.00 41 1012.4
20260507065532 59 269 1.7 7.8 0.00 0.00 0.00 42 1012.4
20260507065031 59 283 3.5 7.8 0.00 0.00 0.00 42 1012.5
20260507064538 60 265 1.7 7.0 0.00 0.00 0.00 41 1012.5
20260507064031 60 263 1.7 7.8 0.00 0.00 0.00 42 1012.5
20260507063531 60 242 0.9 8.7 0.00 0.00 0.00 41 1012.6
20260507063030 60 244 3.5 8.7 0.00 0.00 0.00 42 1012.6
20260507062530 60 288 1.7 6.1 0.00 0.00 0.00 42 1012.6
20260507062032 60 241 1.7 3.5 0.00 0.00 0.00 42 1012.7
20260507061536 60 297 0.0 6.1 0.00 0.00 0.00 41 1012.8
20260507061030 61 290 1.7 6.1 0.00 0.00 0.00 41 1012.8
20260507060530 61 232 0.9 9.6 0.00 0.00 0.00 40 1012.8
20260507060037 61 218 1.7 9.6 0.00 0.00 0.00 39 1012.8
20260507055530 61 253 1.7 7.0 0.00 0.00 0.00 39 1012.9
20260507055030 61 262 1.7 10.4 0.00 0.00 0.00 39 1012.9
20260507054537 61 190 4.3 10.4 0.00 0.00 0.00 39 1012.9
20260507054029 61 267 0.9 7.8 0.00 0.00 0.00 40 1013.0
20260507053529 61 265 2.6 7.8 0.00 0.00 0.00 40 1012.9
20260507053030 61 265 0.9 7.0 0.00 0.00 0.00 40 1013.0
20260507052529 61 269 1.7 7.0 0.00 0.00 0.00 40 1012.9
20260507052028 61 263 0.9 5.2 0.00 0.00 0.00 38 1012.9
20260507051528 62 228 1.7 5.2 0.00 0.00 0.00 37 1012.9
20260507051027 62 298 0.9 4.3 0.00 0.00 0.00 36 1012.8
20260507050527 62 306 1.7 10.4 0.00 0.00 0.00 36 1012.9
20260507050049 62 291 3.5 10.4 0.00 0.00 0.00 36 1012.8
20260507045527 62 263 1.7 7.0 0.00 0.00 0.00 36 1012.9
20260507045026 62 292 0.9 6.1 0.00 0.00 0.00 36 1012.8
20260507044525 62 296 2.6 6.1 0.00 0.00 0.00 36 1012.8
20260507044025 63 323 0.0 7.8 0.00 0.00 0.00 35 1012.8
20260507043525 63 326 0.0 7.8 0.00 0.00 0.00 35 1012.9
20260507043025 63 262 0.0 1.7 0.00 0.00 0.00 35 1012.7
20260507042525 63 262 0.9 5.2 0.00 0.00 0.00 35 1012.7
20260507042024 64 263 0.0 8.7 0.00 0.00 0.00 34 1012.8
20260507041526 64 301 2.6 8.7 0.00 0.00 0.00 33 1012.7
20260507041025 64 258 2.6 8.7 0.00 0.00 0.00 34 1012.7
20260507040526 64 267 0.9 9.6 0.00 0.00 0.00 34 1012.6
20260507040025 64 238 2.6 9.6 0.00 0.00 0.00 34 1012.6
20260507035523 64 327 3.5 10.4 0.00 0.00 0.00 34 1012.5
20260507035025 64 253 1.7 5.2 0.00 0.00 0.00 34 1012.4
20260507034531 64 283 0.0 7.0 0.00 0.00 0.00 33 1012.4
20260507034022 64 290 2.6 8.7 0.00 0.00 0.00 32 1012.4
20260507033523 65 306 1.7 13.0 0.00 0.00 0.00 32 1012.4
20260507033030 65 289 5.2 13.0 0.00 0.00 0.00 32 1012.2
20260507032521 65 305 1.7 9.6 0.00 0.00 0.00 32 1012.2
20260507032021 65 268 3.5 15.6 0.00 0.00 0.00 31 1012.0
20260507031525 66 309 7.8 15.6 0.00 0.00 0.00 30 1012.0
20260507031024 66 288 4.3 11.3 0.00 0.00 0.00 31 1011.9
20260507030620 66 292 4.3 11.3 0.00 0.00 0.00 32 1011.8
20260507030021 67 292 4.3 11.3 0.00 0.00 0.00 32 1011.9
20260507025520 67 331 2.6 12.2 0.00 0.00 0.00 32 1011.8
20260507025020 68 312 3.5 12.2 0.00 0.00 0.00 32 1011.7
20260507024521 68 292 4.3 12.2 0.00 0.00 0.00 31 1011.6
20260507024019 69 325 3.5 9.6 0.00 0.00 0.00 30 1011.7
20260507023519 69 323 2.6 11.3 0.00 0.00 0.00 29 1011.7
20260507023019 70 256 2.6 11.3 0.00 0.00 0.00 27 1011.6
20260507022519 70 321 3.5 10.4 0.00 0.00 0.00 27 1011.5
20260507022019 70 283 4.3 9.6 0.00 0.00 0.00 27 1011.4
20260507021533 70 311 2.6 9.6 0.00 0.00 0.00 27 1011.5
20260507021019 70 290 4.3 15.6 0.00 0.00 0.00 27 1011.3
20260507020520 71 306 2.6 12.2 0.00 0.00 0.00 27 1011.4
20260507020024 71 46 4.3 11.3 0.00 0.00 0.00 27 1011.3
20260507015518 71 279 3.5 9.6 0.00 0.00 0.00 28 1011.3
20260507015019 71 317 3.5 8.7 0.00 0.00 0.00 28 1011.2
20260507014522 71 292 3.5 12.2 0.00 0.00 0.00 28 1011.3
20260507014022 71 296 4.3 13.0 0.00 0.00 0.00 28 1011.1
20260507013517 71 319 4.3 11.3 0.00 0.00 0.00 28 1011.1
20260507013017 72 282 1.7 10.4 0.00 0.00 0.00 28 1011.2
20260507012522 72 300 3.5 13.9 0.00 0.00 0.00 27 1011.0
20260507012017 72 298 0.9 13.0 0.00 0.00 0.00 27 1011.0
20260507011527 73 286 5.2 13.0 0.00 0.00 0.00 26 1011.0
20260507011016 73 306 1.7 7.0 0.00 0.00 0.00 26 1011.0
20260507010518 74 15 1.7 8.7 0.00 0.00 0.00 25 1011.0
20260507010029 74 292 3.5 8.7 0.00 0.00 0.00 25 1011.0
20260507005516 74 11 0.9 8.7 0.00 0.00 0.00 25 1011.0
20260507005024 74 329 3.5 10.4 0.00 0.00 0.00 25 1011.0
20260507004519 74 294 0.9 11.3 0.00 0.00 0.00 26 1010.9
20260507004015 74 265 1.7 11.3 0.00 0.00 0.00 26 1011.0
20260507003514 74 334 5.2 10.4 0.00 0.00 0.00 26 1010.9
20260507003014 75 323 3.5 9.6 0.00 0.00 0.00 26 1010.9
20260507002514 75 292 0.9 8.7 0.00 0.00 0.00 26 1010.8
20260507002014 75 317 1.7 10.4 0.00 0.00 0.00 26 1010.7
20260507001514 75 348 2.6 10.4 0.00 0.00 0.00 26 1010.8
20260507001015 75 236 5.2 17.4 0.00 0.00 0.00 26 1010.7
20260507000522 76 250 2.6 17.4 0.00 0.00 0.00 25 1010.7
20260507000013 76 254 3.5 12.2 0.00 0.00 0.00 25 1010.7
20260506235513 76 313 6.1 13.0 0.00 0.00 0.00 25 1010.6
20260506235020 77 260 3.5 13.9 0.00 0.00 0.00 24 1010.7
20260506234512 77 337 5.2 13.0 0.00 0.00 0.00 23 1010.6
20260506234011 77 285 2.6 13.0 0.00 0.00 0.00 22 1010.6
20260506233512 76 207 4.3 13.0 0.00 0.00 0.00 22 1010.6
20260506233012 77 315 2.6 13.0 0.00 0.00 0.00 22 1010.7
20260506232513 78 264 3.5 12.2 0.00 0.00 0.00 21 1010.6
20260506232010 79 283 3.5 9.6 0.00 0.00 0.00 19 1010.6
20260506231510 78 309 1.7 9.6 0.00 0.00 0.00 23 1010.6
20260506231010 78 241 4.3 12.2 0.00 0.00 0.00 22 1010.7
20260506230509 79 277 3.5 9.6 0.00 0.00 0.00 22 1010.7
20260506230012 78 270 3.5 9.6 0.00 0.00 0.00 22 1010.7
20260506225515 78 307 2.6 12.2 0.00 0.00 0.00 22 1010.7
20260506225008 79 338 6.1 12.2 0.00 0.00 0.00 21 1010.7
20260506224507 79 259 3.5 9.6 0.00 0.00 0.00 22 1010.7
20260506224006 79 295 2.6 11.3 0.00 0.00 0.00 23 1010.8